• Join FlightAware (Why Join?)
  • Login
  • US Flag 
06:38AM EDT


 

Airport Tracker/Info


-or-


 

Live Flight TrackerFlight Track Log ✈ EJA307 ✈ 10-Sep-2013 ✈ KIND - KIAD

Flight Track Log - Related Links

Times and Time Zones

All times are in EDT time to prevent confusion due to time zone crossing. See the EJA307 flight status page for this flight to view local times or setup timezone preferences in your user account.

Time Position Orientation Groundspeed Altitude Reporting Facility
EDT Latitude Longitude Course Direction KTS MPH feet Rate Location/Type
11:04AM 39.6833 -86.3333 191° South 244 281 3,400  Level Indianapolis TRACON
11:05AM 39.6167 -86.3500 191° South 260 299 6,500 3,480 Climbing Indianapolis TRACON
11:06AM 39.5547 -86.2517 129° Southeast 289 333 11,100 2,760 Climbing Indianapolis Center
11:07AM 39.5775 -86.1358 76° East 347 399 13,000 1,740 Climbing Indianapolis Center
11:08AM 39.6281 -85.9917 65° Northeast 370 426 14,800 2,220 Climbing Indianapolis Center
11:09AM 39.6714 -85.8672 98° East 378 435 17,600 2,520 Climbing Indianapolis Center
11:10AM 39.6981 -85.7322 76° East 386 444 20,100 2,220 Climbing Indianapolis Center
11:11AM 39.7094 -85.5878 84° East 401 461 22,200 1,860 Climbing Indianapolis Center
11:12AM 39.7225 -85.4361 84° East 414 476 24,000 1,740 Climbing Indianapolis Center
11:13AM 39.7375 -85.2528 84° East 432 497 25,900 1,680 Climbing Indianapolis Center
11:14AM 39.7517 -85.0942 83° East 441 507 27,500 1,500 Climbing Indianapolis Center
11:15AM 39.7633 -84.9344 85° East 445 512 29,100 1,440 Climbing Indianapolis Center
11:16AM 39.7769 -84.7731 84° East 450 518 30,500 1,260 Climbing Indianapolis Center
11:17AM 39.7886 -84.6094 85° East 455 524 31,800 1,260 Climbing Indianapolis Center
11:18AM 39.8022 -84.4458 84° East 456 525 33,100 1,320 Climbing Indianapolis Center
11:20AM 39.8172 -84.2478 84° East 458 527 34,600 1,080 Climbing Indianapolis Center
11:21AM 39.8289 -84.0808 85° East 464 534 35,400 720 Climbing Indianapolis Center
11:22AM 39.8406 -83.9108 85° East 473 544 36,100 960 Climbing Indianapolis Center
11:23AM 39.8544 -83.7294 84° East 474 545 37,400 1,260 Climbing Indianapolis Center
11:24AM 39.8658 -83.5631 85° East 464 534 38,800 1,320 Climbing Indianapolis Center
11:25AM 39.8744 -83.4028 86° East 449 517 40,200 1,020 Climbing Indianapolis Center
11:26AM 39.8867 -83.2447 84° East 439 505 41,000 360 Climbing Indianapolis Center
11:27AM 39.8961 -83.0825 86° East 447 514 41,000  Level Indianapolis Center
11:28AM 39.9069 -82.9186 85° East 452 520 41,000  Level Indianapolis Center
11:29AM 39.9161 -82.7542 86° East 455 524 41,000  Level Indianapolis Center
11:30AM 39.9286 -82.5547 85° East 459 528 41,000  Level Indianapolis Center
11:31AM 39.9372 -82.3875 86° East 463 533 41,000  Level Indianapolis Center
11:32AM 39.9467 -82.2208 86° East 460 529 41,000  Level Indianapolis Center
11:33AM 39.9558 -82.0536 86° East 461 531 41,000  Level Indianapolis Center
11:34AM 39.9644 -81.8847 86° East 464 534 41,000  Level Indianapolis Center
11:35AM 39.9744 -81.6981 86° East 463 533 41,000  Level Indianapolis Center
11:36AM 39.9825 -81.5319 86° East 464 534 41,000  Level Indianapolis Center
11:37AM 39.9581 -81.3997 104° East 426 490 41,000  Level Indianapolis Center
11:38AM 39.9217 -81.2611 109° East 405 466 41,000  Level Indianapolis Center
11:39AM 39.8756 -81.0792 108° East 423 487 41,000  Level Indianapolis Center
11:40AM 39.8350 -80.9211 108° East 443 510 41,000  Level Indianapolis Center
11:41AM 39.7936 -80.7611 109° East 456 525 41,000  Level Indianapolis Center
11:42AM 39.7544 -80.5992 107° East 447 514 41,000 -240 Level Cleveland Center
11:43AM 39.7128 -80.4428 109° East 447 514 40,600 -1,440 Descending Cleveland Center
11:44AM 39.6708 -80.2864 109° East 447 514 38,200 -2,340 Descending Cleveland Center
11:46AM 39.5975 -80.0006 108° East 456 525 33,900 -2,340 Descending Washington Center
11:47AM 39.5575 -79.8444 108° East 456 525 31,400 -2,520 Descending Washington Center
11:48AM 39.5258 -79.6758 104° East 463 533 28,900 -2,220 Descending Washington Center
11:49AM 39.4958 -79.5128 103° East 468 539 27,000 -960 Descending Washington Center
11:50AM 39.4675 -79.3525 103° East 457 526 27,000 -900 Level Washington Center
11:51AM 39.4369 -79.1950 104° East 457 526 25,300 -1,920 Descending Washington Center
11:52AM 39.4097 -79.0514 104° East 435 501 23,200 -2,040 Descending Washington Center
11:53AM 39.3847 -78.9078 103° East 419 482 21,300 -1,980 Descending Washington Center
11:54AM 39.3611 -78.7725 103° East 396 456 19,200 -2,040 Descending Washington Center
11:55AM 39.3375 -78.6453 103° East 374 430 17,300 -1,920 Descending Washington Center
11:56AM 39.3156 -78.5211 103° East 368 423 15,400 -1,740 Descending Washington Center
11:57AM 39.2933 -78.4022 104° East 356 410 13,800 -1,740 Descending Washington Center
11:58AM 39.2478 -78.2931 118° Southeast 343 395 12,000 -1,680 Descending Washington Center
11:59AM 39.1997 -78.2031 125° Southeast 329 379 10,500 -1,020 Descending Washington Center
12:00PM 39.1539 -78.1156 124° Southeast 310 357 10,000 -360 Descending Washington Center
12:01PM 39.1036 -78.0256 126° Southeast 305 351 9,800 -960 Descending Washington Center
12:02PM 39.0572 -77.9358 124° Southeast 305 351 8,200 -1,560 Descending Washington Center
12:03PM 39.0092 -77.8408 123° Southeast 292 336 6,700 -1,140 Descending Washington Center
12:04PM 38.9689 -77.7542 121° Southeast 287 330 6,000 -360 Descending Washington Center
12:05PM 38.9561 -77.6603 100° East 276 318 6,000  Level Washington Center
12:06PM 39.0333 -77.5667 43° Northeast 259 298 6,000 -660 Level Potomac TRACON
12:07PM 39.0833 -77.5667 360° North 222 255 4,500 -1,020 Descending Potomac TRACON
12:08PM 39.1333 -77.5500 14° North 234 269 4,000 -480 Descending Potomac TRACON
12:09PM 39.1333 -77.4833 90° East 238 274 3,700 -900 Descending Potomac TRACON
12:10PM 39.0833 -77.4500 153° Southeast 220 253 2,400 -900 Descending Potomac TRACON
12:11PM 39.0333 -77.4500 180° South 175 201 2,000 -720 Descending Potomac TRACON
12:12PM 39.0000 -77.4667 201° Southwest 126 145 1,000 -1,020 Descending Potomac TRACON
12:14PM 38.9474 -77.4599 165° South  Level Estimated
12:21PM 38.9474 -77.4599 165° South  Level Estimated
12:22PM 38.9474 -77.4599 165° South  Level Estimated
12:23PM 38.9474 -77.4599 165° South  Level Estimated